Regional Weather Roundup
Issued by NWS

Home | Current Version | Previous Version | Text Only | Print | Product List | Glossary On
Versions: 1 2 3 4 5 6 7 8 9 10 11 12 13 14 15 16 17 18 19 20 21 22 23 24 25 26 27 28 29 30 31 32 33 34 35 36 37 38 39 40 41 42 43 44 45 46 47 48 49 50
317
ASUS43 KDTX 232201
RWRMI
MICHIGAN HOURLY REGIONAL WEATHER ROUNDUP
NATIONAL WEATHER SERVICE DETROIT/PONTIAC MI
500 PM EST THU NOV 23 2017

NOTE: "FAIR" INDICATES FEW OR NO CLOUDS BELOW 12,000 FEET WITH NO
SIGNIFICANT WEATHER AND/OR OBSTRUCTION TO VISIBILITY.

MIZ047>049-052>055-059>063-066>070-074>076-081>083-232300-
SOUTHEAST LOWER MICHIGAN

CITY           SKY/WX    TMP DP  RH WIND       PRES   REMARKS
ADRIAN         CLEAR     36  24  62 SW9       29.95F WCI  29
ALMA           CLOUDY    41  28  60 SW6       29.91R
ANN ARBOR      CLEAR     36  22  56 S9        29.93F WCI  29
BAD AXE        CLOUDY    36  24  63 SW6       29.91S WCI  31
CARO           CLOUDY    37  23  58 SW5       29.91R WCI  33
DETROIT CITY   CLEAR     37  22  54 SW9       29.95S WCI  30
DETROIT        PTCLDY    37  24  59 SW14      29.95F WCI  28
FLINT          MOCLDY    40  19  43 SW12      29.92R WCI  33
GROSSE ILE     CLEAR     37  28  69 SW10      29.94F WCI  30
HILLSDALE      CLEAR     36  19  51 S5        29.91F WCI  32
HOWELL         CLEAR     38  21  51 SW5       29.92R WCI  34

CITY           SKY/WX    TMP DP  RH WIND       PRES   REMARKS
JACKSON        CLEAR     38  20  48 SW9       29.92S WCI  31
LAMBERTVILLE   CLEAR     40  25  56 SW8       29.95F WCI  34
LANSING        CLEAR     40  20  44 SW10      29.93R WCI  33
LAPEER         CLOUDY    37  23  58 SW8       29.91S WCI  31
MASON          CLEAR     40  20  43 SW3       29.93R
MONROE         CLEAR     39  24  54 SW8       29.94F WCI  33
MT. CLEMENS    CLOUDY    38  23  53 SW9       29.92S WCI  32
PONTIAC        PTCLDY    36  22  56 SW7       29.91R WCI  30
PORT HOPE        N/A     36  25  64 SW7       29.89R WCI  30
PORT HURON     CLOUDY    36  23  60 S6        29.93S WCI  31
TRI CITIES     CLOUDY    39  29  67 SW12      29.91R WCI  32
MIDLAND        MOCLDY    38  27  64 S3        29.89S
TROY           CLEAR     39  22  50 SW9       29.95R WCI  33
SAGINAW HB     CLOUDY    37  27  65 SW6       29.91R WCI  33
$$
MIZ043>046-050>051-056>058-064>065-071>073-077>080-232300-
SOUTHWEST LOWER MICHIGAN

CITY           SKY/WX    TMP DP  RH WIND       PRES   REMARKS
BATTLE CREEK   CLEAR     39  23  52 SW8       29.94R WCI  33
BENTON HARBOR  CLEAR     42  23  46 SW8       29.93R
BIG RAPIDS     CLOUDY    38  26  61 W7        29.88S WCI  33
COLDWATER      CLEAR     39  18  42 SW7       29.94R WCI  34
FREMONT        CLOUDY    39  29  66 W8        29.91R WCI  33
HOLLAND        MOCLDY    42  28  57 SW12      29.92S
GRAND RAPIDS   CLOUDY    41  29  62 SW12      29.91R
IONIA          CLOUDY    41  24  50 SW8       29.91S
KALAMAZOO      CLEAR     39  21  48 SW7       29.94R WCI  34
LUDINGTON      CLEAR     37  26  66 SW5       29.90R WCI  33
MARSHALL       CLEAR     38  20  48 SW8       29.93R WCI  32
MOUNT PLEASANT CLOUDY    42  28  58 SW6       29.88S
MUSKEGON       MOCLDY    40  27  59 W10       29.92S WCI  33
SOUTH HAVEN    CLEAR     44  24  46 SW8       29.92S
$$
MIZ016>042-232300-
NORTHERN LOWER MICHIGAN

CITY           SKY/WX    TMP DP  RH WIND       PRES   REMARKS
ALPENA         CLOUDY    38  26  62 W8        29.86R WCI  32
BEAVER ISLAND  MOCLDY    37  27  69 W8        29.85S WCI  30
BELLAIRE       MOCLDY    37  29  71 CALM      29.88R
CADILLAC       CLOUDY    36  24  63 W7        29.85S WCI  30
CHARLEVOIX     PTCLDY    37  28  69 SW8       29.89S WCI  31
FRANKFORT      CLEAR     38  26  59 SW5       29.89S WCI  35
GAYLORD        CLOUDY    34  24  67 W7        29.84S WCI  28
GRAYLING       CLOUDY    37  24  58 W7        29.86S WCI  32
HARBOR SPRINGS CLOUDY    37  27  66 W9G20     29.84S WCI  31
HOUGHTON LAKE  CLOUDY    38  26  62 W9        29.86R WCI  31
MANISTEE       CLEAR     37  25  61 SW6       29.89S WCI  32
OSCODA         CLOUDY    39  24  53 SW9       29.87R WCI  33
PELLSTON       MOCLDY    36  27  69 W12       29.85S WCI  28
ROGERS CITY    CLOUDY    37  27  68 W6        29.86R WCI  32
TRAVERSE CITY  PTCLDY    38  25  59 SW3       29.87S
$$
MIZ007>008-015-232300-
EASTERN UPPER MICHIGAN

CITY           SKY/WX    TMP DP  RH WIND       PRES   REMARKS
KINROSS        CLEAR     31  23  72 W7        29.82F WCI  24
MACKINAC ISLAN CLEAR     35  23  62 NW8       29.84R WCI  28
NEWBERRY       CLOUDY    32  25  76 SW5       29.82S WCI  27
S. S. MARIE    CLOUDY    33  25  72 SW7       29.80S WCI  27
MUNISING         N/A     36  26  67 CALM      29.82S
$$
MIZ004>006-011>014-085-232300-
CENTRAL UPPER MICHIGAN

CITY           SKY/WX    TMP DP  RH WIND       PRES   REMARKS
MANISTIQUE     CLOUDY    36  18  48 SW5       29.84R WCI  32
ESCANABA       CLOUDY    39  21  48 S5        29.83F
MENOMINEE      CLEAR     39  21  48 SW5       29.86S
SAWYER-GWINN   MOCLDY    37  21  52 W5        29.80S WCI  34
$$
MIZ001>003-009>011-084-232300-
WESTERN UPPER MICHIGAN

CITY           SKY/WX    TMP DP  RH WIND       PRES   REMARKS
IRON MOUNTAIN  CLEAR     38  19  46 CALM      29.79F
HOUGHTON       MOCLDY    32  26  78 W10       29.77F WCI  24
COPPER HARBOR    N/A     35  27  72 VRB3      29.78F
IRONWOOD       CLEAR     38  23  55 SW3       29.77S
$$

ABBREVIATIONS USED IN REMARKS
   TC - TEMPERATURE IN CELSIUS
  WCI - WIND CHILL INDEX
   HX - HEAT INDEX
  VSB - VISIBILITY





USA.gov is the U.S. government's official web portal to all federal, state and local government web resources and services.